K4YOU Weather Reports


Display with metric or nautical units.
time (UTC)temp
F
wind
direction
speed
MPH
gust
MPH
rain 1hr
in
rain 24hr
in
rain mn
in
humidity
%
barometer
mb
20260507170035 53 154 0.0 3.0 0.12 1.31 1.31 97 1011.3
20260507164537 53 145 1.0 6.0 0.24 1.29 1.29 97 1011.0
20260507163033 53 250 0.0 3.0 0.42 1.28 1.28 97 1011.2
20260507161536 53 157 0.0 3.0 0.48 1.25 1.25 97 1011.1
20260507160048 54 164 0.0 4.0 0.51 1.19 1.19 97 1010.6
20260507154527 55 102 1.0 4.0 0.44 1.05 1.05 97 1010.7
20260507153027 56 195 1.0 7.0 0.28 0.85 0.85 97 1010.9
20260507151522 57 147 0.0 3.0 0.23 0.77 0.77 97 1010.9
20260507150021 57 170 0.0 4.0 0.13 0.67 0.67 97 1010.9
20260507144519 58 200 1.0 3.0 0.07 0.60 0.60 97 1010.8
20260507143014 58 190 0.0 3.0 0.06 0.56 0.56 97 1010.6
20260507141511 59 139 1.0 3.0 0.04 0.54 0.54 97 1010.5
20260507140026 59 127 0.0 3.0 0.07 0.54 0.54 98 1010.4
20260507134510 59 134 0.0 1.0 0.10 0.53 0.53 98 1010.2
20260507133009 59 306 0.0 3.0 0.10 0.51 0.51 98 1010.3
20260507131508 59 132 0.0 2.0 0.15 0.50 0.50 97 1010.3
20260507130006 60 132 0.0 1.0 0.24 0.47 0.47 97 1010.5
20260507124505 60 131 0.0 2.0 0.26 0.42 0.42 96 1010.7
20260507123001 62 153 1.0 4.0 0.28 0.41 0.41 95 1010.5
20260507121559 64 133 0.0 2.0 0.27 0.35 0.35 97 1010.3
20260507120055 65 114 0.0 1.0 0.18 0.24 0.24 98 1010.4
20260507114555 65 113 0.0 0.0 0.12 0.16 0.16 98 1010.1
20260507113126 65 113 0.0 0.0 0.10 0.13 0.13 98 1010.1
20260507111553 65 113 0.0 0.0 0.06 0.08 0.08 97 1010.0
20260507110052 66 113 0.0 2.0 0.05 0.06 0.06 97 1010.0
20260507104601 66 113 0.0 1.0 0.03 0.04 0.04 97 1009.9
20260507103050 66 165 0.0 2.0 0.02 0.03 0.03 96 1009.7
20260507101553 66 122 0.0 1.0 0.01 0.02 0.02 95 1009.4
20260507100146 66 97 0.0 2.0 0.00 0.01 0.01 94 1009.1
20260507094545 67 92 0.0 2.0 0.00 0.01 0.01 93 1009.2
20260507093043 67 110 0.0 2.0 0.00 0.01 0.01 92 1009.0
20260507091547 67 110 0.0 1.0 0.00 0.01 0.01 91 1008.9
20260507090041 67 109 0.0 2.0 0.00 0.01 0.01 91 1009.2
20260507084551 67 91 0.0 1.0 0.00 0.01 0.01 91 1009.3
20260507083038 68 102 0.0 3.0 0.00 0.01 0.01 89 1009.7
20260507081537 68 89 0.0 3.0 0.00 0.01 0.01 88 1009.8
20260507080037 68 92 0.0 3.0 0.00 0.01 0.01 87 1009.7
20260507074537 68 113 0.0 3.0 0.00 0.01 0.01 87 1010.0
20260507073036 68 93 0.0 3.0 0.01 0.01 0.01 88 1009.8
20260507071541 68 107 0.0 3.0 0.01 0.01 0.01 88 1010.0
20260507070039 68 107 0.0 2.0 0.01 0.01 0.01 88 1009.9
20260507064543 68 109 0.0 1.0 0.01 0.01 0.01 88 1009.5
20260507063033 67 109 0.0 1.0 0.00 0.00 0.00 89 1009.4
20260507061535 68 109 0.0 1.0 0.00 0.00 0.00 88 1010.1
20260507060036 68 109 0.0 1.0 0.00 0.00 0.00 87 1010.9
20260507054536 69 109 0.0 1.0 0.00 0.00 0.00 84 1010.9
20260507053022 70 108 0.0 2.0 0.00 0.00 0.00 82 1010.9
20260507051520 71 115 0.0 4.0 0.00 0.00 0.00 79 1010.9
20260507050039 71 127 0.0 2.0 0.00 0.00 0.00 77 1010.8
20260507044522 71 108 0.0 1.0 0.00 0.00 0.00 76 1010.6
20260507043015 71 161 0.0 1.0 0.00 0.00 0.00 76 1010.8
20260507041514 71 94 0.0 5.0 0.00 0.00 0.00 75 1010.9
20260507040014 71 99 0.0 2.0 0.00 0.00 0.00 75 1010.7
20260507034512 72 107 0.0 1.0 0.00 0.00 0.00 75 1010.3
20260507033016 71 107 0.0 2.0 0.00 0.00 0.00 76 1010.4
20260507031510 72 108 0.0 0.0 0.00 0.00 0.00 77 1010.5
20260507030010 72 108 0.0 1.0 0.00 0.00 0.00 75 1010.7
20260507024515 73 108 0.0 1.0 0.00 0.00 0.00 75 1010.7
20260507023009 73 108 0.0 1.0 0.00 0.00 0.00 75 1011.1
20260507021517 73 109 0.0 1.0 0.00 0.00 0.00 76 1011.0
20260507020010 73 108 0.0 1.0 0.00 0.00 0.00 75 1010.9
20260507014507 73 101 0.0 0.0 0.00 0.00 0.00 75 1011.2
20260507013009 73 101 0.0 0.0 0.00 0.00 0.00 74 1011.0
20260507011514 73 101 0.0 0.0 0.00 0.00 0.00 74 1011.0
20260507010010 74 101 0.0 0.0 0.00 0.00 0.00 72 1011.1
20260507004505 74 101 0.0 0.0 0.00 0.00 0.00 71 1011.0
20260507003005 75 101 0.0 0.0 0.00 0.00 0.00 70 1010.8
20260507001505 76 101 0.0 0.0 0.00 0.00 0.00 68 1010.6
20260507000004 76 101 0.0 1.0 0.00 0.00 0.00 67 1010.4
20260506234503 76 101 0.0 1.0 0.00 0.00 0.00 66 1010.3
20260506233003 77 91 0.0 1.0 0.00 0.00 0.00 66 1010.1
20260506231502 77 97 0.0 3.0 0.00 0.00 0.00 65 1010.1
20260506230002 78 128 0.0 1.0 0.00 0.00 0.00 64 1009.9
20260506224500 78 116 0.0 4.0 0.00 0.00 0.00 64 1009.8
20260506223102 79 125 1.0 3.0 0.00 0.00 0.00 63 1009.9
20260506221600 79 112 0.0 2.0 0.00 0.00 0.00 64 1009.9
20260506220101 79 97 0.0 2.0 0.00 0.00 0.00 65 1010.0
20260506214558 79 100 0.0 1.0 0.00 0.00 0.00 64 1009.9
20260506213057 79 128 0.0 2.0 0.00 0.00 0.00 65 1009.5
20260506211556 79 91 0.0 3.0 0.00 0.00 0.00 64 1009.7
20260506210054 79 101 2.0 5.0 0.00 0.00 0.00 64 1010.0
20260506204558 79 83 2.0 7.0 0.00 0.00 0.00 64 1010.2
20260506203050 79 76 1.0 7.0 0.00 0.00 0.00 64 1010.5
20260506201547 79 86 0.0 3.0 0.00 0.00 0.00 64 1010.8
20260506200105 80 89 2.0 5.0 0.00 0.00 0.00 64 1011.1
20260506194549 80 101 2.0 7.0 0.00 0.00 0.00 65 1011.4
20260506193040 80 101 0.0 3.0 0.00 0.00 0.00 68 1011.4
20260506191539 78 103 0.0 3.0 0.00 0.00 0.00 68 1011.5
20260506190038 78 113 0.0 3.0 0.00 0.00 0.00 69 1011.7
20260506184535 78 96 0.0 2.0 0.00 0.00 0.00 68 1011.9
20260506183033 78 88 2.0 6.0 0.00 0.00 0.00 66 1012.0
20260506181532 78 58 1.0 4.0 0.00 0.00 0.00 67 1012.3
20260506180030 79 119 1.0 7.0 0.00 0.00 0.00 66 1012.5
20260506174527 79 80 2.0 8.0 0.00 0.00 0.00 66 1013.0
20260506173023 78 127 1.0 5.0 0.00 0.00 0.00 67 1013.1
20260506171533 77 126 0.0 2.0 0.00 0.00 0.00 71 1013.2